Location: Unspecified
(0.0000°N, 0.0000°E)
Time: 08:39:56
(UTC+00:00)

N. Korean satellite - Pass Details

Date: 20 September 2021
Orbit: 448 x 499 km, 97.3° (Epoch: 17 September)

Event Time Altitude Azimuth Distance (km) Brightness Sun altitude
Rises 04:28:21 0° 26° (NNE) 2,529 10.6 -21.3°
Reaches altitude 10° 04:30:31 10° 37° (NE) 1,662 9.7 -20.7°
Maximum altitude 04:33:46 32° 101° (ESE) 855 8.4 -19.9°
Drops below altitude 10° 04:37:02 10° 166° (SSE) 1,689 9.5 -19.1°
Sets 04:39:16 0° 176° (S) 2,579 10.3 -18.5°
